Starlink 33625

operational
NORAD ID: 63327 Int'l Des: 2025-057 Owner: SPXS Country: US Constellation: starlink
LEOCIRCULAR

About Starlink 33625

Description loading...

Live Position

Loading 3D Globe...

Upcoming Passes

Altitude History

Altitude vs Time

uPlot chart will show altitude changes over time

Two-Line Element Set

1 63327U 25057W 25304.60558573 .00051654 00000-0 18704-2 0 9996
2 63327 43.0016 32.2356 0002141 261.7220 98.3389 15.27633430 36122
Epoch: Oct 31, 2025 • Age: 15 hours

Current Status

Altitude 482.8 km
Velocity 7.63 km/s
Sub-Earth Point -3.92°S, 90.16°E
Launch Date Mar 18, 2025
Age 0.6 years
Type internet

Technical Details

Classification Payload
Mass 575.00 kg
Dry Mass 530.00 kg
Total Mass 575.00 kg
Length 0.30 m
Diameter 4.10 m
Span 29.00 m
Shape Box + pan
Manufacturer SPXS
Bus Type Starlink V2MO
Phase Status In Orbit
Owner/State SPXS/US

Large Constellations

Loading constellations...